Regional Weather Roundup
Issued by NWS San Angelo, TX

Home | Current Version | Previous Version | Text Only | Print | Product List | Glossary On
Versions: 1 2 3 4 5 6 7 8 9 10 11 12 13 14 15 16 17 18 19 20 21 22 23 24 25 26 27 28 29 30 31 32 33 34 35 36 37 38 39 40 41 42 43 44 45 46 47 48 49 50
000
ASUS44 KSJT 012110
RWRSJT
WEST CENTRAL TEXAS REGIONAL WEATHER ROUNDUP
NATIONAL WEATHER SERVICE SAN ANGELO TX
400 PM CDT WED OCT 01 2014

NOTE: "FAIR" INDICATES FEW OR NO CLOUDS BELOW 12,000 FEET WITH NO
SIGNIFICANT WEATHER AND/OR OBSTRUCTIONS TO VISIBILITY.

TXZ049-054-064>066-071>073-076>078-098-099-113-114-127-128-139-140-
154-155-168>170-012200
...LOCATIONS ACROSS WEST CENTRAL TEXAS...

CITY           SKY/WX    TMP DP  RH WIND       PRES   REMARKS
SAN ANGELO     SUNNY     96  62  32 SW17G24   29.74F
ABILENE        SUNNY     94  65  38 S16G28    29.74F
DYESS AFB      SUNNY     94  66  39 S16G23    29.72F
JUNCTION       SUNNY     91  62  37 VRB6      29.77F
SWEETWATER     MOSUNNY   91  62  38 S9        29.79S
BROWNWOOD      SUNNY     91  64  40 SW9G18    29.75F
COLEMAN        CLEAR     95  60  30 S14       29.75F
SONORA         SUNNY     91  61  35 S13       29.82F
OZONA          FAIR      90  59  35 S10G18    29.81F
BRADY          SUNNY     95  63  34 VRB7      29.77S
$$

TEXAS PANHANDLE/OKLAHOMA PANHANDLE

CITY           SKY/WX    TMP DP  RH WIND       PRES   REMARKS
AMARILLO       SUNNY     83  40  21 SW12      29.79F
BORGER         SUNNY     86  37  17 SW7       29.75F
CANADIAN       SUNNY     88  36  15 SW9G16    29.71F
DALHART        SUNNY     82  32  16 SW13G18   29.81F
DUMAS          CLEAR     83  38  19 S6G17     29.79S
GUYMON         NOT AVBL
HEREFORD       CLEAR     82  44  26 S3        29.81F
PAMPA          CLEAR     83  35  17 W9        29.78F
PERRYTON       SUNNY     86  43  22 W7        29.73F
$$

SOUTHERN PANHANDLE/SOUTH PLAINS/ROLLING PLAINS

CITY           SKY/WX    TMP DP  RH WIND       PRES   REMARKS
LUBBOCK        MOSUNNY   86  53  32 SW15      29.78F
SNYDER         SUNNY     89  60  38 S6        29.77S
CHILDRESS      SUNNY     93  50  23 SW14G20   29.71F
SEMINOLE       CLEAR     86  38  18 W14       29.82F
$$

PERMIAN BASIN

CITY           SKY/WX    TMP DP  RH WIND       PRES   REMARKS
MIDLAND        SUNNY     91  49  23 W14       29.79F
ODESSA         SUNNY     89  47  23 SW8       29.81F
WINK           SUNNY     90  46  21 W14G21    29.78F
$$

FAR WEST/SOUTHWEST MOUNTAINS/TRANS PECOS

CITY           SKY/WX    TMP DP  RH WIND       PRES   REMARKS
ALPINE         CLEAR     86  44  23 SW13G20   29.97F
DRYDEN           N/A     95  61  32 S10       29.74F
EL PASO        SUNNY     83  32  16 W12G21    29.88F
FORT STOCKTON  SUNNY     91  48  22 SW7       29.80F
GUADALUPE PASS SUNNY     77  36  22 W26G38    29.96S
MARFA          SUNNY     82  39  21 NW10G17   29.97F
PECOS          CLEAR     91  46  20 SW10G21   29.77F
$$

DALLAS/FORT WORTH METROPLEX

CITY           SKY/WX    TMP DP  RH WIND       PRES   REMARKS
DFW AIRPORT    MOSUNNY   92  66  42 S17G24    29.73F
FTW MEACHAM    SUNNY     94  66  39 S14G21    29.72F
DAL-EXECUTIVE  SUNNY     92  66  42 SE13G23   29.74F
GRAND PRAIRIE  MOSUNNY   91  63  38 MISG      29.75F
ADDISON        NOT AVBL
MESQUITE       PTCLDY    91  64  40 SE10G18   29.76F
LANCASTER      PTCLDY    91  65  41 S7        29.75F
$$

NORTH CENTRAL TEXAS

CITY           SKY/WX    TMP DP  RH WIND       PRES   REMARKS
SHRMAN/DENISON PTCLDY    90  64  42 S15G22    29.75F
GAINESVILLE    SUNNY     89  67  48 SE16G23   29.75F
BRIDGEPORT     CLEAR     95  57  28 S13G22    29.72F
DENTON         MOSUNNY   92  66  42 SE17      29.72F
WAXAHACHIE     PTCLDY    91  68  47 SE14      29.76F
GRANBURY       CLEAR     94  64  36 SE10G18   29.74F
$$

WESTERN NORTH TEXAS

CITY           SKY/WX    TMP DP  RH WIND       PRES   REMARKS
WICHITA FALLS  MOSUNNY   97  60  29 S18G26    29.67F
VERNON         CLEAR     96  59  28 S10G18    29.68F
BRECKENRIDGE     N/A     98  57  25 S15G21    29.70F HAZE
COMANCHE       SUNNY     95  59  30 S12G20    29.75F
$$

CENTRAL AND SOUTH CENTRAL TEXAS

CITY           SKY/WX    TMP DP  RH WIND       PRES   REMARKS
AUSTIN/BERGSTM PTSUNNY   91  68  46 S6        29.75F
WACO           MOSUNNY   92  66  42 S15       29.75F
HILLSBORO      CLEAR     92  65  40 S13       29.75F
TEMPLE         MOSUNNY   91  66  43 S16       29.76S
KILLEEN-GRAY   MOSUNNY   91  66  43 SE13G24   29.76F
FORT HOOD      MOSUNNY   92  68  45 SE7G16    29.76F
GEORGETOWN     MOSUNNY   91  68  46 SE8       29.77F
LAGO VISTA     FAIR      89  66  46 SE6       29.79F
SAN MARCOS     MOSUNNY   91  66  43 S12       29.76F
NEW BRAUNFELS  MOSUNNY   91  68  46 S14       29.75F
RANDOLPH AFB   MOSUNNY   92  67  43 SW10      29.77F
SAN ANTONIO    MOSUNNY   92  68  45 VRB6      29.77F
STINSON        PTSUNNY   93  69  45 SE9       29.74F
PLEASANTON     NOT AVBL
LA GRANGE      MOSUNNY   91  74  56 SE5       29.75S
GIDDINGS       CLEAR     90  69  49 SE5       29.80S
$$

EAST TEXAS

CITY           SKY/WX    TMP DP  RH WIND       PRES   REMARKS
PARIS          MOSUNNY   90  66  45 S10       29.78F
CLARKSVILLE    NOT AVBL
TYLER          SUNNY     89  70  53 S7        29.78F
LONGVIEW       MOSUNNY   89  69  51 S10       29.78F
PALESTINE      PTCLDY    89  69  50 S5        29.78F
NACOGDOCHES    MOSUNNY   90  72  55 S13       29.80S
$$

TEXAS HILL COUNTRY AND EDWARDS PLATEAU

CITY           SKY/WX    TMP DP  RH WIND       PRES   REMARKS
LLANO          CLEAR     93  66  40 S12       29.79S
HORSESHOE BAY  FAIR      91  65  42 S8        29.77F
KERRVILLE      SUNNY     89  69  52 S12       29.80F
FREDERICKSBRG  SUNNY     87  66  48 SW9       29.80F
ROCKSPRINGS    CLEAR     88  64  45 S13       29.84F
HONDO          SUNNY     93  66  40 SW12      29.77F
UVALDE         CLEAR     93  71  47 S7        29.76F
DEL RIO        SUNNY     92  67  43 SE13G21   29.71F
$$

SOUTHEAST TEXAS

CITY           SKY/WX    TMP DP  RH WIND       PRES   REMARKS
COLLEGE STN    MOSUNNY   89  70  53 SE8       29.77F
CALDWELL       PTCLDY    91  66  43 SE9       29.79F
CROCKETT         N/A     95  73  49 S12       29.80F
BRENHAM        SUNNY     93  71  47 S10       29.77F
HUNTSVILLE     MOSUNNY   92  68  45 SE6       29.78F
CONROE         MOSUNNY   90  69  50 SE7       29.78F
HOUSTON BUSH   MOSUNNY   90  74  59 S10       29.77F
HOUSTON HOBBY  PTSUNNY   89  74  60 SE9       29.77F
PERLAND        PTSUNNY   90  75  61 S10       29.79F
WHARTON        CLEAR     89  73  57 S14       29.78F
$$

THE UPPER TEXAS COAST

CITY           SKY/WX    TMP DP  RH WIND       PRES   REMARKS
ORANGE         CLEAR     88  73  61 S13       29.82F
PORT ARTHUR    MOSUNNY   89  75  63 S13       29.80F
GALVESTON      MOSUNNY   85  77  77 S12       29.81F
ANGLETON       SUNNY     87  71  58 S14       29.79F
BAY CITY       CLEAR     89  74  61 S9        29.79S
$$

TEXAS COASTAL BEND, RIO GRANDE PLAINS DEEP SOUTH TEXAS

CITY           SKY/WX    TMP DP  RH WIND       PRES   REMARKS
VICTORIA       MOSUNNY   92  74  55 S16       29.77S
BEEVILLE       FAIR      92  68  45 S10       29.76F
ROCKPORT       SUNNY     88  76  67 SE10      29.77F
PORT ARANSAS   CLEAR     86  77  74 SE9       29.78S
PORT LAVACA    PTCLDY    89  74  62 S12G17    29.78S
CORPUS CHRISTI MOSUNNY   89  77  67 SE13      29.75F
KINGSVILLE NAS MOSUNNY   91  81  72 SE9       29.75F
COTULLA        SUNNY     96  65  35 S9        29.73F
LAREDO         MOSUNNY   95  71  45 SE8G21    29.75F
BROWNSVILLE    MOSUNNY   90  82  77 S18G24    29.76F
PORT ISABEL    MOSUNNY   89  76  65 S18G26    29.75F HAZE
HEBBRONVILLE   PTCLDY    91  71  51 SE13G20   29.76F
MCALLEN        PTSUNNY   91  76  61 SE10      29.74F
WESLACO        MOSUNNY   92  72  50 S18G25    29.74S
FALFURRIAS     PTCLDY    91  72  53 S9        29.74F
EDINBURG       CLEAR     94  73  51 S10       29.74S
$$



USA.gov is the U.S. government's official web portal to all federal, state and local government web resources and services.